Weather History for Ottumwa, IA

Change the Weather History Date:

Wednesday, January 22, 2014

  Actual Average Record
Temperature  
Mean Temperature 8 °F 22 °F  
Max Temperature 19 °F 32 °F 63 °F (1967)
Min Temperature -3 °F 13 °F -36 °F (1930)
Degree Days  
Heating Degree Days 57 43  
Month to date heating degree days 953 940  
Since 1 July heating degree days 3627 3445  
Cooling Degree Days 0 0  
Month to date cooling degree days 0 0  
Year to date cooling degree days 0 0  
Moisture  
Dew Point 3 °F    
Average Humidity 67    
Maximum Humidity 76    
Minimum Humidity 57    
Precipitation  
Precipitation T in 0.03 in 0.49 in (1965)
Month to date precipitation 0.11 0.66  
Year to date precipitation 0.11 0.66  
Sea Level Pressure  
Sea Level Pressure 30.18 in    
Wind  
Wind Speed 20 mph (NW)    
Max Wind Speed 32 mph    
Max Gust Speed 40 mph    
Visibility 8 miles    
Events Snow    
T = Trace of Precipitation, MM = Missing Value Source: NWS Daily Summary

Daily Weather History Graph

Daily Weather History Graph

Search for Another Location

Airport:

Trip Planner

Search our weather history database for the weather conditions in past years. The results will help you decide how hot, cold, wet, or windy it might be!

Date:

Astronomy

Jan. 22, 2014 Rise Set
Actual Time 7:28 AM CST 5:14 PM CST
Civil Twilight 6:59 AM CST 5:44 PM CST
Nautical Twilight 6:25 AM CST 6:17 PM CST
Astronomical Twilight 5:52 AM CST 6:50 PM CST
Moon 11:51 PM CST (1/22) 10:26 AM CST (1/22)
Length of Visible Light 10h 45m
Length of Day
9h 45m
Waning Gibbous, 65% of the Moon is Illuminated
Jan 22
Waning Gibbous
Jan 23
Last Quarter
Jan 30
New
Feb 6
First Quarter
Feb 14
Full

Hourly Weather History & Observations

Time (CST) Temp. Windchill Dew Point Humidity Pressure Visibility Wind Dir Wind Speed Gust Speed Precip Events Conditions
12:53 AM 10.9 °F -1.8 °F 3.0 °F 70% 30.11 in 10.0 mi SSE 9.2 mph - N/A   Overcast
1:53 AM 12.0 °F -2.0 °F 3.9 °F 70% 30.09 in 10.0 mi South 11.5 mph - N/A   Overcast
2:53 AM 12.9 °F -0.2 °F 5.0 °F 71% 30.07 in 10.0 mi South 10.4 mph - N/A   Overcast
3:53 AM 12.9 °F 0.7 °F 6.1 °F 74% 30.04 in 10.0 mi SSW 9.2 mph - N/A   Overcast
4:53 AM 15.1 °F 4.2 °F 7.0 °F 70% 30.03 in 10.0 mi SSW 8.1 mph - N/A   Overcast
5:53 AM 16.0 °F 8.8 °F 8.1 °F 71% 30.02 in 10.0 mi WSW 4.6 mph - N/A   Overcast
6:43 AM 19.0 °F 3.2 °F 9.0 °F 65% 29.98 in 10.0 mi NW 19.6 mph - N/A   Overcast
6:53 AM 18.0 °F 0.6 °F 9.0 °F 68% 30.03 in 10.0 mi NW 23.0 mph 26.5 mph N/A   Overcast
7:53 AM 18.0 °F 4.2 °F 10.9 °F 74% 30.06 in 3.0 mi NW 13.8 mph - 0.00 in Snow Light Snow
8:53 AM 16.0 °F -2.1 °F 7.0 °F 68% 30.09 in 10.0 mi NNW 23.0 mph 31.1 mph 0.00 in   Partly Cloudy
9:32 AM 17.1 °F 2.0 °F 8.1 °F 68% 30.05 in 10.0 mi WNW 16.1 mph 23.0 mph N/A   Mostly Cloudy
9:44 AM 17.1 °F 0.6 °F 7.0 °F 65% 30.04 in 10.0 mi NW 19.6 mph - N/A   Scattered Clouds
9:53 AM 17.1 °F -0.6 °F 7.0 °F 65% 30.09 in 10.0 mi NW 23.0 mph 35.7 mph N/A   Partly Cloudy
10:53 AM 19.0 °F 0.6 °F 9.0 °F 65% 30.12 in 10.0 mi NW 27.6 mph 32.2 mph N/A   Mostly Cloudy
11:53 AM 19.0 °F 4.0 °F 8.1 °F 62% 30.10 in 10.0 mi NW 17.3 mph 25.3 mph N/A   Overcast
12:53 PM 18.0 °F 1.3 °F 8.1 °F 65% 30.11 in 10.0 mi WNW 20.7 mph 29.9 mph N/A   Overcast
1:41 PM 19.0 °F 1.6 °F 8.1 °F 62% 30.06 in 10.0 mi NW 24.2 mph 29.9 mph N/A   Overcast
1:53 PM 19.0 °F 3.6 °F 8.1 °F 62% 30.10 in 10.0 mi WNW 18.4 mph 29.9 mph N/A   Overcast
2:53 PM 18.0 °F 2.6 °F 10.0 °F 71% 30.12 in 3.0 mi NW 17.3 mph 27.6 mph 0.00 in Snow Light Snow
3:16 PM 19.0 °F 2.7 °F 9.0 °F 65% 30.09 in 4.0 mi NW 20.7 mph 28.8 mph 0.00 in Snow Light Snow
3:24 PM 18.0 °F 1.3 °F 10.0 °F 71% 30.10 in 1.8 mi NW 20.7 mph 29.9 mph 0.00 in Snow Light Snow
3:34 PM 18.0 °F 2.2 °F 10.0 °F 71% 30.11 in 2.0 mi NW 18.4 mph - 0.00 in Snow Light Snow
3:42 PM 18.0 °F 1.3 °F 10.9 °F 74% 30.10 in 1.5 mi NW 20.7 mph 28.8 mph 0.00 in Snow Light Snow
3:49 PM 17.6 °F -0.3 °F 8.6 °F 68% 30.11 in 3.0 mi NW 24.2 mph 33.4 mph 0.00 in Snow Light Snow
3:53 PM 18.0 °F -0.2 °F 9.0 °F 68% 30.16 in 4.0 mi NW 25.3 mph 33.4 mph 0.00 in Snow Light Snow
4:07 PM 17.1 °F -2.0 °F 5.0 °F 59% 30.12 in 10.0 mi NW 27.6 mph 40.3 mph 0.00 in   Scattered Clouds
4:18 PM 16.0 °F -2.5 °F 10.0 °F 77% 30.14 in 2.5 mi NNW 24.2 mph 33.4 mph 0.00 in Snow Light Snow
4:25 PM 15.1 °F -2.9 °F 8.1 °F 74% 30.14 in 4.0 mi NW 21.9 mph 34.5 mph 0.00 in Snow Light Snow
4:53 PM 12.9 °F -6.1 °F 3.9 °F 67% 30.21 in 10.0 mi NW 23.0 mph 36.8 mph 0.00 in   Scattered Clouds
5:13 PM 10.9 °F -9.6 °F 1.9 °F 67% 30.18 in 8.0 mi NW 25.3 mph 35.7 mph N/A   Mostly Cloudy
5:20 PM 10.9 °F -9.6 °F -0.0 °F 61% 30.19 in 10.0 mi NW 25.3 mph 35.7 mph N/A   Partly Cloudy
5:53 PM 8.1 °F -14.5 °F -4.0 °F 58% 30.26 in 10.0 mi NW 28.8 mph 36.8 mph N/A   Clear
6:53 PM 5.0 °F -16.7 °F -2.0 °F 73% 30.32 in 10.0 mi NNW 23.0 mph 29.9 mph N/A   Mostly Cloudy
7:19 PM 3.9 °F -18.5 °F -0.9 °F 80% 30.29 in 1.8 mi NNW 24.2 mph 29.9 mph 0.00 in Snow Light Snow
7:27 PM 3.9 °F -18.1 °F -2.0 °F 76% 30.30 in 1.8 mi NNW 23.0 mph 32.2 mph 0.00 in Snow Light Snow
7:30 PM 3.9 °F -19.4 °F -2.9 °F 73% 30.30 in 3.0 mi NNW 26.5 mph 33.4 mph 0.00 in Snow Light Snow
7:38 PM 3.0 °F -20.6 °F -6.0 °F 66% 30.31 in 10.0 mi NNW 26.5 mph 35.7 mph 0.00 in   Overcast
7:53 PM 1.9 °F -22.0 °F -8.0 °F 63% 30.37 in 10.0 mi NNW 26.5 mph 34.5 mph 0.00 in   Scattered Clouds
8:53 PM -0.0 °F -25.5 °F -9.0 °F 66% 30.41 in 10.0 mi NW 28.8 mph 36.8 mph N/A   Mostly Cloudy
9:53 PM -0.9 °F -24.1 °F -11.0 °F 62% 30.45 in 10.0 mi NW 21.9 mph 27.6 mph N/A   Mostly Cloudy
10:00 PM -2.0 °F -26.0 °F -11.0 °F 66% 30.39 in 10.0 mi NNW 23.0 mph - N/A   Scattered Clouds
10:30 PM -2.0 °F -26.0 °F -9.9 °F 69% 30.41 in 10.0 mi NNW 23.0 mph 28.8 mph N/A   Mostly Cloudy
10:53 PM -2.0 °F -24.4 °F -11.0 °F 66% 30.48 in 10.0 mi NNW 19.6 mph 27.6 mph N/A   Overcast
11:43 PM -2.9 °F -25.6 °F -11.0 °F 68% 30.45 in 10.0 mi NW 19.6 mph - N/A   Partly Cloudy
11:53 PM -2.9 °F -24.4 °F -11.0 °F 68% 30.51 in 10.0 mi NW 17.3 mph - N/A   Partly Cloudy